www.pogodaiklimat.ru

Погода и климат >> Архив погоды >> Индия >> Raipur


ПОГОДА в Raipur

  • Прогноз погоды в Raipur
  • Монитор погоды в Raipur
  • Климат города

АРХИВ ПОГОДЫ в Raipur

Время (UTC), дата Ветер
(напр.,м/с)
 
Видим.   Явления Облачность Т
(С)
Тd
(С)
f
(%)
Тe
(С)
Тes
(С)
Комфортность P
(гПа)
Po
(гПа)
Тmin
(С)
Tmax
(С)
R
(мм)
R24
(мм)
S
(см)
06 8.08 З 1 4000 м гроза, ливневой дождь 10/8 300 м
[Cb cap As op]
+24.6 +23.7 95 +33 +34 очень
душно
997.3 997.0 2
09 8.08 ЮЗ 1 4000 м 8/8 600 м
[Cu Sc]
+31.4 +23.0 61 +42 +45 опасность
перегрева
999.1 999.0 230
12 8.08 З 2 4000 м {дождь} 10/6 300 м
[Frnb As op]
+25.2 +24.0 93 +35 +35 очень
душно
997.1 997.0 +25.6 28
15 8.08 З 2 4000 м 4/4 540 м
[Sc Ac trans]
+25.0 +23.8 93 +34 +34 очень
душно
999.1 999.0 23
21 8.08 З 5 4000 м мгла 4/1 600 м
[Sc Ac trans]
+24.8 +23.9 95 +34 +34 очень
душно
999.8 1000.0 22
03 9.08 З 3 4000 м 10/5 300 м
[Frnb As op]
+25.4 +23.3 88 +34 +35 очень
душно
1002.0 1002.0 +24.6 28
06 9.08 З 2 4000 м 10/6 360 м
[Frnb As op]
+26.4 +23.5 84 +36 +38 очень
душно
1002.6 1003.0
09 9.08 З 3 4000 м 10/6 360 м
[St As trans]
+28.0 +23.7 77 +38 +40 очень
душно
1001.2 1001.0
12 9.08 З 3 4000 м 9/8 360 м
[St As trans]
+27.4 +23.9 81 +38 +38 очень
душно
1000.7 1001.0 +28.5
15 9.08 ЮЗ 1 4000 м 8/6 450 м
[St Ac trans]
+26.8 +24.2 86 +37 +37 очень
душно
1002.3 1002.0
21 9.08 ЮЗ 1 4000 м 4/4 600 м
[Sc]
+26.4 +25.3 94 1004.7 1
03 10.08 З 2 4000 м мгла 9/6 450 м
[St As trans]
+26.6 +24.0 86 +37 +39 очень
душно
1003.0 1003.0 +25.5
06 10.08 З 2 4000 м 10/6 450 м
[St As trans]
+28.0 +24.9 83 +40 +43 очень
душно
1002.7 1003.0 2
09 10.08 З 2 4000 м 9/6 450 м
[St As trans]
+30.0 +25.5 77 +44 +48 опасность
перегрева
1000.7 1001.0 2
12 10.08 З 2 4000 м в посл. час дождь 8/5 450 м
[Frnb As trans]
+29.0 +25.9 83 +43 +44 опасность
перегрева
999.2 999.0 +30.8 3
15 10.08 З 2 4000 м {гроза, дождь} 8/5 360 м
[St As trans]
+27.0 +25.6 92 +40 +40 очень
душно
1001.5 1002.0 4
03 11.08 З 2 4000 м 10/5 450 м
[St As trans]
+26.8 +22.8 79 +36 +38 очень
душно
1000.2 1000.0 +25.5 4
06 11.08 З 1 4000 м 9/6 450 м
[Sc diur, vesp As trans]
+30.0 +25.2 76 +44 +49 опасность
перегрева
999.5 1000.0
09 11.08 З 2 4000 м в посл. час гроза {дождь} 6/5 540 м
[Sc diur, vesp Ac trans]
+29.0 +25.6 82 +43 +50 опасность
перегрева
997.2 997.0 2
12 11.08 штиль 0 2000 м гроза, ливневой дождь 10/8 450 м
[Cb cap As op]
+25.4 +23.7 90 +35 +35 очень
душно
997.9 1008.7 +31.6 5
15 11.08 З 1 4000 м слабый дождь {гроза} 10/6 450 м
[Frnb As op]
+25.4 +24.5 95 +36 +36 очень
душно
999.4 999.0 7
18 11.08 штиль 0 4000 м {гроза, дождь} 10/5 600 м
[Sc As op]
+25.8 +25.0 95 +37 +37 очень
душно
999.7 931.8 3
03 12.08 З 1 2000 м гроза, ливневой дождь 10/8 360 м
[Cb cap As op]
+26.4 +24.4 89 +37 +37 очень
душно
998.1 998.0 +25.3 8
06 12.08 З 1 2000 м гроза, ливневой дождь 10/8 360 м
[Cb cap As op]
+25.6 +25.0 96 +36 +37 очень
душно
998.9 999.0 19
09 12.08 З 2 4000 м {дождь} 10/6 450 м
[Frnb As op]
+26.8 +25.1 90 +39 +40 очень
душно
996.7 997.0 21
12 12.08 З 2 4000 м в посл. час дождь 10/6 450 м
[Frnb As trans]
+27.0 +24.1 84 +37 +38 очень
душно
996.5 997.0 +26.6 21
15 12.08 З 2 4000 м 10/5 600 м
[Sc As trans]
+26.2 +24.2 89 +36 +36 очень
душно
998.6 999.0 21
18 12.08 З 2 4000 м 10/6 540 м
[Frnb As op]
+26.8 +23.6 83 +37 +37 очень
душно
997.2 997.0
21 12.08 З 1 4000 м 10/6 540 м
[Frnb As op]
+26.2 +23.6 86 +36 +36 очень
душно
995.7 996.0
00 13.08 штиль 0 4000 м 10/6 600 м
[Sc As op]
+24.4 +23.0 92 +32 +32 очень
душно
997.4 997.8
03 13.08 З 2 4000 м 10/6 360 м
[St As op]
+25.6 +24.1 91 +35 +36 очень
душно
999.5 1000.0 +24.7 21
06 13.08 З 2 4000 м 10/6 360 м
[St As trans]
+27.4 +24.2 83 +38 +42 очень
душно
999.6 1000.0
09 13.08 З 1 4000 м слабый дождь 10/8 540 м
[Cb cap As op]
+27.0 +23.5 81 +37 +37 очень
душно
998.5 999.0 0.0
12 13.08 З 2 4000 м {гроза, дождь} 8/4 600 м
[Sc Ac trans]
+28.0 +25.2 85 +41 +41 опасность
перегрева
997.4 997.0 +29.3 10
15 13.08 З 1 4000 м 8/4 600 м
[Sc Ac trans]
+26.0 +24.3 90 +36 +36 очень
душно
999.2 999.0 10
00 14.08 ЮЗ 2 4000 м 8/8 600 м
[Sc]
+25.8 +25.5 98 +38 +38 очень
душно
997.8 998.0 230
03 14.08 З 2 4000 м 10/5 360 м
[St As op]
+26.4 +24.7 90 +37 +38 очень
душно
999.4 999.0 +25.1 15
06 14.08 З 2 4000 м 10/4 600 м
[Sc As op]
+29.2 +24.9 78 +42 +45 опасность
перегрева
999.0 999.0
09 14.08 С 1 4000 м 9/5 450 м
[St Ac trans Ci sp]
+30.8 +25.7 74 +45 +50 опасность
перегрева
995.9 996.0
12 14.08 СЗ 2 4000 м в посл. час морось 9/6 450 м
[St As trans]
+30.0 +24.6 73 +43 +43 опасность
перегрева
996.0 996.0 +31.3 0.0
15 14.08 З 1 4000 м слабый дождь 10/6 450 м
[Frnb As op]
+27.4 +25.4 89 +40 +40 очень
душно
998.0 998.0 0.0
03 15.08 З 1 4000 м в посл. час дождь 9/5 540 м
[Sc As trans]
+28.0 +25.4 86 +41 +44 опасность
перегрева
997.9 998.0 +25.8 0.4

 

Местоположение метеостанции Raipur (Chhattisgarh, Индия): широта 21.23 долгота 81.65 высота над уровнем моря 298 м.

В архиве по умолчанию представлена погода в Raipur за последнюю неделю. Архивные данные за месяц целиком и за предыдущие месяцы, начиная с января 2011 года, Вы можете получить, выбрав интересующий диапазон дат из раскрывающегося списка и нажав кнопку "Ввод!".


*Определитесь, кто Вы:
робот инопланетянин человек

Внимание! Время в таблицах - всемирное. Для получения местного времени необходимо прибавить поправку, которая в Raipur равна 5.5 ч.

Смотрите также архив погоды в соседних городах и на ближайших метеорологических станциях:

Погода в Durg (Chhattisgarh, Индия) (39 км)
Погода в Rajnandgaon (Chhattisgarh, Индия) (66 км)
Погода в Bilaspur (Chhattisgarh, Индия) (111 км)
Погода в Raipur Airport (Chhattisgarh, Индия) (111 км)
Погода в Malanjkhand (Madhya Pradesh, Индия) (130 км)
Погода в Gondia (Maharashtra, Индия) (153 км)
Погода в Pendra Road (Chhattisgarh, Индия) (173 км)
Погода в Bramhapuri (Maharashtra, Индия) (200 км)
Погода в Mandla (Madhya Pradesh, Индия) (200 км)
Погода в Titlagarh (Orissa, Индия) (200 км)

Пояснения к столбцам:

Ветер - указаны скорость ветра в м/с - средняя за 10 мин, порывы в срок и между сроками (в фигурных скобках) и направление, откуда дует ветер: С - северный, СВ - северо-восточный, В - восточный, ЮВ - юго-восточный, Ю - южный, ЮЗ - юго-западный, З - западный, СЗ - северо-западный.
Видимость - горизонтальная дальность видимости в метрах или километрах. При видимости от 1 до 10 км при отсутствии осадков обычно наблюдается дымка, при ухудшении видимости до 1 км и менее - туман. В сухую погоду видимость может ухудшаться дымом, пылью или мглою.
Явления - указаны атмосферные явления, наблюдавшиеся в срок или в последний час перед сроком; фигурными скобками обозначены явления, наблюдавшиеся между сроками (за 1-3 часа до срока); квадратными скобками обозначены град или гололедные отложения с указанием их диаметра в мм.
Облачность - указаны через наклонную черту общая и нижняя облачность в баллах и высота нижней границы облаков в метрах; квадратными скобками обозначены формы облаков: Ci - перистые, Cs - перисто-слоистые, Cc - перисто-кучевые, Ac - высококучевые, As - высокослоистые, Sc - слоисто-кучевые, Ns - слоисто-дождевые, Cu - кучевые, Cb - кучево-дождевые. Подробнее классификацию облаков см. в Атласе облаков (PDF).
T - Температура воздуха - температура, измеренная на высоте 2 м над землей.
Td - Температура точки росы - температура, при понижении до которой содержащийся в воздухе водяной пар достигнет насыщения.
f - Относительная влажность воздуха - влажноcть воздуха, измеренная на высоте 2 м над землей.
Te - Эффективная температура - температура, которую ощущает одетый по сезону человек в тени. Характеристика душности погоды. При расчете учитывается влияние влажности воздуха и скорости ветра на теплоощущения человека.
Tes - Эффективная температура на солнце - температура, которую ощущает человек, с поправкой на солнечный нагрев. Характеристика знойности погоды. Зависит от высоты солнца над горизонтом, облачности и скорости ветра. Ночью, в пасмурную погоду, а также при ветре 12 м/с и более поправка равна нулю.
P - Атмосферное давление - приведенное к уровню моря атмосферное давление.
Po - Атмосферное давление - измеренное на уровне метеостанции атмосферное давление.
Tmin - Минимальная температура - минимум температуры воздуха на высоте 2 м над землей.
Tmax - Максимальная температура - максимум температуры воздуха на высоте 2 м над землей.
R - Количество осадков - Количество выпавших осадков за период времени, мм. При наведении курсора мыши на число - период времени, за который выпало указанное количество осадков.
R24 - Количество осадков - Количество выпавших осадков за 24 часа, мм.
S - Снежный покров - Высота снежного покрова, см. При наведении курсора мыши на число - состояние снежного покрова и степень покрытия местности в баллах.